Weather History for Wichita, KS

Change the Weather History Date:

Monday, November 5, 2012

  Actual Average Record
Temperature  
Mean Temperature 48 °F 51 °F  
Max Temperature 58 °F 62 °F 81 °F (1924)
Min Temperature 38 °F 39 °F 16 °F (1982)
Degree Days  
Heating Degree Days 17 15  
Month to date heating degree days 52 69  
Since 1 July heating degree days 312 355  
Cooling Degree Days 0 0  
Month to date cooling degree days 3 0  
Year to date cooling degree days 2304 1684  
Moisture  
Dew Point 37 °F    
Average Humidity 66    
Maximum Humidity 85    
Minimum Humidity 46    
Precipitation  
Precipitation 0.00 in 0.06 in 0.83 in (1951)
Month to date precipitation 0.00 0.29  
Year to date precipitation 24.12 30.30  
Snow  
Snow 0.00 in 0.00 in 7.50 in (1951)
Month to date snowfall 0.0 0.0  
Since 1 July snowfall 0.0 0.1  
Since 1 September snowfall 0.0 0.1  
Snow Depth 0.00 in    
Sea Level Pressure  
Sea Level Pressure 30.12 in    
Wind  
Wind Speed 12 mph (North)    
Max Wind Speed 26 mph    
Max Gust Speed 35 mph    
Visibility 10 miles    
Events      
T = Trace of Precipitation, MM = Missing Value Source: NWS Daily Summary

Daily Weather History Graph

Daily Weather History Graph

Search for Another Location

Airport:

Trip Planner

Search our weather history database for the weather conditions in past years. The results will help you decide how hot, cold, wet, or windy it might be!

Date:

Astronomy

Nov. 05, 2012 Rise Set
Actual Time 6:59 AM CST 5:26 PM CST
Civil Twilight 6:32 AM CST 5:53 PM CST
Nautical Twilight 6:01 AM CST 6:25 PM CST
Astronomical Twilight 5:30 AM CST 6:55 PM CST
Moon 11:05 PM CST (11/5) 12:19 PM CST (11/5)
Length of Visible Light 11h 21m
Length of Day
10h 27m
Waning Gibbous, 62% of the Moon is Illuminated
Nov 5
Waning Gibbous
Nov 6
Last Quarter
Nov 13
New
Nov 20
First Quarter
Nov 28
Full

Hourly Weather History & Observations

Time (CST) Temp. Windchill Dew Point Humidity Pressure Visibility Wind Dir Wind Speed Gust Speed Precip Events Conditions
12:53 AM 53.1 °F - 34.0 °F 48% 30.05 in 10.0 mi WNW 6.9 mph - N/A   Mostly Cloudy
1:53 AM 52.0 °F - 35.1 °F 53% 30.05 in 10.0 mi NW 8.1 mph - N/A   Mostly Cloudy
2:53 AM 57.0 °F - 37.9 °F 49% 30.05 in 10.0 mi NNW 12.7 mph - N/A   Mostly Cloudy
3:53 AM 51.8 °F - 39.2 °F 62% 30.07 in 10.0 mi NW 9.2 mph - N/A   Scattered Clouds
4:53 AM 48.9 °F - 37.9 °F 66% 30.06 in 10.0 mi NW 9.2 mph - N/A   Scattered Clouds
5:53 AM 48.2 °F - 37.4 °F 66% 30.08 in 10.0 mi NW 9.2 mph - N/A   Scattered Clouds
6:53 AM 48.9 °F - 37.9 °F 66% 30.09 in 10.0 mi NNW 13.8 mph - N/A   Scattered Clouds
7:53 AM 48.0 °F - 39.0 °F 71% 30.12 in 10.0 mi NNW 18.4 mph - N/A   Partly Cloudy
8:28 AM 46.4 °F 38.3 °F 39.2 °F 76% 30.13 in 10.0 mi NNW 23.0 mph 32.2 mph N/A   Mostly Cloudy
8:53 AM 46.9 °F - 39.0 °F 74% 30.14 in 10.0 mi North 18.4 mph 27.6 mph N/A   Mostly Cloudy
9:53 AM 46.9 °F - 39.0 °F 74% 30.15 in 10.0 mi North 17.3 mph 26.5 mph N/A   Overcast
10:53 AM 52.0 °F - 36.0 °F 54% 30.16 in 10.0 mi North 23.0 mph 29.9 mph N/A   Mostly Cloudy
11:11 AM 50.0 °F - 35.6 °F 58% 30.16 in 10.0 mi North 17.3 mph - N/A   Mostly Cloudy
11:53 AM 52.0 °F - 36.0 °F 54% 30.15 in 10.0 mi North 19.6 mph 31.1 mph N/A   Mostly Cloudy
12:53 PM 53.1 °F - 36.0 °F 52% 30.13 in 10.0 mi NNW 18.4 mph 24.2 mph N/A   Mostly Cloudy
1:53 PM 53.1 °F - 36.0 °F 52% 30.13 in 10.0 mi NNW 17.3 mph - N/A   Mostly Cloudy
2:53 PM 53.1 °F - 35.1 °F 50% 30.12 in 10.0 mi North 15.0 mph - N/A   Mostly Cloudy
3:53 PM 55.0 °F - 35.1 °F 47% 30.11 in 10.0 mi North 11.5 mph 18.4 mph N/A   Scattered Clouds
4:53 PM 52.0 °F - 35.1 °F 53% 30.13 in 10.0 mi North 10.4 mph - N/A   Scattered Clouds
5:53 PM 48.9 °F - 35.1 °F 59% 30.13 in 10.0 mi NNE 8.1 mph - N/A   Scattered Clouds
6:53 PM 46.9 °F - 35.1 °F 63% 30.14 in 10.0 mi NNE 4.6 mph - N/A   Mostly Cloudy
7:53 PM 45.0 °F 42.6 °F 35.1 °F 68% 30.16 in 10.0 mi North 4.6 mph - N/A   Mostly Cloudy
8:53 PM 44.1 °F 42.5 °F 36.0 °F 73% 30.16 in 10.0 mi North 3.5 mph - N/A   Scattered Clouds
9:53 PM 41.0 °F 38.0 °F 35.1 °F 79% 30.14 in 10.0 mi ENE 4.6 mph - N/A   Scattered Clouds
10:53 PM 39.9 °F 35.8 °F 36.0 °F 86% 30.13 in 10.0 mi East 5.8 mph - N/A   Scattered Clouds
11:53 PM 42.1 °F 37.7 °F 37.0 °F 82% 30.12 in 10.0 mi East 6.9 mph - N/A   Overcast